| time (UTC) | temp F | wind direction | speed MPH | gust MPH | rain 1hr in | rain 24hr in | rain mn in | humidity % | barometer mb |
| 20260505065807 | 58 | 0.0 | 0.0 | 0.00 | 0.00 | 0.00 | 80 | 1004.6 | |
| 20260505064307 | 58 | 0.0 | 0.0 | 0.00 | 0.00 | 0.00 | 81 | 1004.2 | |
| 20260505062807 | 58 | 0.0 | 0.0 | 0.00 | 0.00 | 0.00 | 82 | 1005.2 | |
| 20260505061307 | 56 | 0.0 | 0.0 | 0.00 | 0.00 | 0.00 | 82 | 1005.3 | |
| 20260505055807 | 56 | 0.0 | 0.0 | 0.00 | 0.00 | 0.00 | 83 | 1005.1 | |
| 20260505054307 | 56 | 0.0 | 0.0 | 0.00 | 0.00 | 0.00 | 83 | 1005.1 | |
| 20260505052807 | 56 | 0.0 | 0.0 | 0.00 | 0.00 | 0.00 | 83 | 1005.1 | |
| 20260505051307 | 56 | 0.0 | 0.0 | 0.00 | 0.00 | 0.00 | 83 | 1005.0 | |
| 20260505041307 | 56 | 0.0 | 0.0 | 0.00 | 0.00 | 0.00 | 81 | 1005.0 | |
| 20260505035807 | 56 | 0.0 | 0.0 | 0.00 | 0.00 | 0.00 | 81 | 1005.1 | |
| 20260505034307 | 56 | 0.0 | 0.0 | 0.00 | 0.00 | 0.00 | 81 | 1005.1 | |
| 20260505032807 | 56 | 0.0 | 0.0 | 0.00 | 0.00 | 0.00 | 81 | 1005.2 | |
| 20260505031307 | 56 | 0.0 | 0.0 | 0.00 | 0.00 | 0.00 | 81 | 1005.3 | |
| 20260505025807 | 56 | 0.0 | 0.0 | 0.00 | 0.00 | 0.00 | 81 | 1004.9 | |
| 20260505024307 | 56 | 0.0 | 0.0 | 0.00 | 0.00 | 0.00 | 81 | 1005.1 | |
| 20260505022807 | 56 | 0.0 | 0.0 | 0.00 | 0.00 | 0.00 | 81 | 1005.6 | |
| 20260505021307 | 56 | 0.0 | 0.0 | 0.00 | 0.00 | 0.00 | 81 | 1005.6 | |
| 20260505015807 | 55 | 0.0 | 0.0 | 0.00 | 0.00 | 0.00 | 81 | 1005.8 | |
| 20260505014307 | 56 | 0.0 | 0.0 | 0.00 | 0.00 | 0.00 | 81 | 1005.5 | |
| 20260505012807 | 56 | 0.0 | 0.0 | 0.00 | 0.00 | 0.00 | 80 | 1005.3 | |
| 20260505011307 | 56 | 0.0 | 0.0 | 0.00 | 0.00 | 0.00 | 80 | 1005.5 | |
| 20260505005807 | 56 | 0.0 | 0.0 | 0.00 | 0.00 | 0.00 | 81 | 1005.6 | |
| 20260505004307 | 56 | 0.0 | 0.0 | 0.00 | 0.00 | 0.00 | 81 | 1005.8 | |
| 20260505002807 | 56 | 0.0 | 0.0 | 0.00 | 0.00 | 0.00 | 81 | 1006.1 | |
| 20260505001307 | 56 | 0.0 | 0.0 | 0.00 | 0.00 | 0.00 | 81 | 1006.6 | |
| 20260504235807 | 56 | 0.0 | 0.0 | 0.00 | 0.00 | 0.00 | 80 | 1006.0 | |
| 20260504234307 | 56 | 0.0 | 0.0 | 0.00 | 0.00 | 0.00 | 80 | 1006.3 | |
| 20260504232806 | 56 | 0.0 | 0.0 | 0.00 | 0.00 | 0.00 | 80 | 1006.6 | |
| 20260504231307 | 57 | 0.0 | 0.0 | 0.00 | 0.00 | 0.00 | 79 | 1006.6 | |
| 20260504225807 | 58 | 0.0 | 0.0 | 0.00 | 0.00 | 0.00 | 78 | 1006.7 | |
| 20260504224307 | 58 | 0.0 | 0.0 | 0.00 | 0.00 | 0.00 | 78 | 1006.7 | |
| 20260504222807 | 58 | 0.0 | 0.0 | 0.00 | 0.00 | 0.00 | 77 | 1006.8 | |
| 20260504221307 | 59 | 0.0 | 0.0 | 0.00 | 0.00 | 0.00 | 76 | 1006.7 | |
| 20260504215807 | 60 | 0.0 | 0.0 | 0.00 | 0.00 | 0.00 | 75 | 1006.6 | |
| 20260504214307 | 61 | 0.0 | 0.0 | 0.00 | 0.00 | 0.00 | 74 | 1006.8 | |
| 20260504212807 | 61 | 0.0 | 0.0 | 0.00 | 0.00 | 0.00 | 73 | 1006.9 | |
| 20260504211307 | 61 | 0.0 | 0.0 | 0.00 | 0.00 | 0.00 | 72 | 1006.7 | |
| 20260504205807 | 61 | 0.0 | 0.0 | 0.00 | 0.00 | 0.00 | 73 | 1006.9 | |
| 20260504204307 | 61 | 0.0 | 0.0 | 0.00 | 0.00 | 0.00 | 73 | 1006.8 | |
| 20260504202807 | 62 | 0.0 | 0.0 | 0.00 | 0.00 | 0.00 | 72 | 1006.8 | |
| 20260504201307 | 62 | 0.0 | 0.0 | 0.00 | 0.00 | 0.00 | 71 | 1006.8 | |
| 20260504195807 | 63 | 0.0 | 0.0 | 0.00 | 0.00 | 0.00 | 70 | 1006.7 | |
| 20260504194307 | 64 | 0.0 | 0.0 | 0.00 | 0.00 | 0.00 | 69 | 1006.7 | |
| 20260504192807 | 64 | 0.0 | 0.0 | 0.00 | 0.00 | 0.00 | 67 | 1006.6 | |
| 20260504191307 | 65 | 0.0 | 0.0 | 0.00 | 0.00 | 0.00 | 65 | 1006.4 | |
| 20260504185807 | 65 | 0.0 | 0.0 | 0.00 | 0.00 | 0.00 | 64 | 1006.5 | |
| 20260504184307 | 67 | 0.0 | 0.0 | 0.00 | 0.00 | 0.00 | 61 | 1006.5 | |
| 20260504182807 | 68 | 0.0 | 0.0 | 0.00 | 0.00 | 0.00 | 59 | 1006.3 | |
| 20260504181307 | 69 | 0.0 | 0.0 | 0.00 | 0.00 | 0.00 | 57 | 1006.3 | |
| 20260504175806 | 70 | 0.0 | 0.0 | 0.00 | 0.00 | 0.00 | 55 | 1006.0 | |
| 20260504174307 | 71 | 0.0 | 0.0 | 0.00 | 0.00 | 0.00 | 54 | 1005.7 | |
| 20260504172807 | 71 | 0.0 | 0.0 | 0.00 | 0.00 | 0.00 | 53 | 1006.4 | |
| 20260504171307 | 72 | 0.0 | 0.0 | 0.00 | 0.00 | 0.00 | 51 | 1006.1 | |
| 20260504141307 | 75 | 0.0 | 0.0 | 0.00 | 0.00 | 0.00 | 48 | 1007.1 | |
| 20260504081307 | 69 | 0.0 | 0.0 | 0.00 | 0.00 | 0.00 | 58 | 1008.1 |